Regional Weather Roundup
Issued by NWS Upton, NY

Current Version | Previous Version | Graphics & Text | Print | Product List | Glossary Off
Versions: 1 2 3 4 5 6 7 8 9 10 11 12 13 14 15 16 17 18 19 20 21 22 23 24 25 26 27 28 29 30 31 32 33 34 35 36 37 38 39 40 41 42 43 44 45 46 47 48 49 50

258
ASUS41 KOKX 281809
RWROKX

REGIONAL WEATHER ROUNDUP
NATIONAL WEATHER SERVICE NEW YORK NY
200 PM EDT FRI APR 28 2017

NOTE: "FAIR" INDICATES FEW OR NO CLOUDS BELOW 12,000 FEET WITH NO
SIGNIFICANT WEATHER AND/OR OBSTRUCTIONS TO VISIBILITY.

NYZ071-072-176-178-NJZ106-104-281900-
NEW YORK CITY METRO AREA

CITY           SKY/WX    TMP DP  RH WIND       PRES   REMARKS
Central Park   SUNNY     82  56  40 VRB6      30.01F
Wall St Helipt CLEAR     81  55  40 VRB5      29.99F
Bronx Bot Gard   N/A     81  55  41 SE7       30.00R
LaGuardia APRT MOSUNNY   82  57  42 VRB6      29.98F
Kennedy INTL   MOSUNNY   73  60  63 S8        30.01S
Breezy Point     N/A     61 N/A N/A SE6G12      N/A
Newark/Liberty MOSUNNY   83  53  35 SW16G25   29.97F
Teterboro      MOSUNNY   82  58  43 S13G24    29.96F
$$

NYZ177-179-078>081-281900-
LONG ISLAND NEW YORK

CITY           SKY/WX    TMP DP  RH WIND       PRES   REMARKS
Jones Beach      N/A     63 N/A N/A S8          N/A
Matinecock PT    N/A     72 N/A N/A SW1         N/A
Farmingdale    SUNNY     74  63  68 SW9       30.00S
MacArthur/ISP  MOSUNNY   73  62  68 S10       30.00R
Shirley        SUNNY     72  62  71 S9        30.00F
Mt Sinai Harb    N/A    N/A N/A N/A CALM        N/A
Westhampton    SUNNY     69  59  70 SW8       30.02S
East Hampton     N/A     64  56  76 SW6       30.01R
Montauk        NOT AVBL
$$

NYZ052-065-067-281900-
HUDSON VALLEY

CITY           SKY/WX    TMP DP  RH WIND       PRES   REMARKS
White Plains   MOSUNNY   78  62  57 SE12      29.98F
Larchmont Harb   N/A     63 N/A N/A E5          N/A
Croton O-T Hud   N/A     75 N/A N/A SE6         N/A
Newburgh       MOSUNNY   81  57  44 W16       29.98F
Montgomery     MOSUNNY   83  53  35 SW10      29.93F
Poughkeepsie   SUNNY     80  56  43 E6        29.94F
Albany         MOSUNNY   76  52  43 W10G16    29.97F
$$

NJZ001-105-106-008-010-013-015-019>022-104-281900-
NEW JERSEY

CITY           SKY/WX    TMP DP  RH WIND       PRES   REMARKS
Newark/Liberty MOSUNNY   83  53  35 SW16G25   29.97F
Teterboro      MOSUNNY   82  58  43 S13G24    29.96F
Caldwell       SUNNY     82  50  32 VRB3G17   29.97F
Somerville     SUNNY     82  48  30 MISG      29.96F
Linden           N/A     82  48  30 W6        29.98F
Perth Amboy      N/A     79 N/A N/A SW14        N/A
Sussex         SUNNY     83  47  28 S6        29.97F
Andover          N/A     81  43  26 S8        29.98F
Trenton        SUNNY     81  52  36 W13       29.99F
Millville      SUNNY     83  56  39 W9G16     30.02F
Atlantic City  MOSUNNY   82  61  48 S10       30.00F
Wrightstown    SUNNY     83  56  38 SW14      29.97F
Toms River     MOSUNNY   86  56  35 W10       30.00F
Belmar         SUNNY     84  54  35 VRB6      30.00F
$$

PAZ047>061-062-071-281900-
EASTERN PENNSYLVANIA

CITY           SKY/WX    TMP DP  RH WIND       PRES   REMARKS
Philadelphia   SUNNY     82  49  31 SW10      30.01S
Allentown      SUNNY     80  46  30 SW9       30.00F
Scranton       SUNNY     78  40  25 VRB7G21   30.00S
$$

CTZ002-004>006-009-010-012-RIZ004-006-007-MAZ004-011-015-281900-
SOUTHERN NEW ENGLAND
 IN CT

CITY           SKY/WX    TMP DP  RH WIND       PRES   REMARKS
Bradley INTL   MOSUNNY   78  62  57 VRB5      29.96F
Hartford       SUNNY     76  64  66 S7        29.96F
Danbury        MOSUNNY   77  59  53 SW7       29.98F
Wtrbury/Oxford MOSUNNY   79  57  47 S8        29.99F
Bridgeport     SUNNY     72  61  68 SW10      29.99F
Meriden        SUNNY     78  62  57 S7        29.97F
New Haven      MOSUNNY   65  59  81 S7        29.99F
Chester          N/A     79  63  57 SE5       29.99F
Groton         SUNNY     66  59  78 SW10      29.99R
Wilimantic     SUNNY     79  62  56 W5        29.98R

 IN RI

CITY           SKY/WX    TMP DP  RH WIND       PRES   REMARKS
Providence     MOSUNNY   70  61  73 S10       29.98R
Block Island   SUNNY     63  55  75 SW13      30.01S
Westerly       SUNNY     67  58  72 SW12      30.01R
 IN MA

CITY           SKY/WX    TMP DP  RH WIND       PRES   REMARKS
Boston         PTSUNNY   73  62  68 SW8       29.95S
Worcester      SUNNY     74  58  57 W10       29.99R
Westfield      MOSUNNY   81  60  48 W8        29.95F
Provincetown   CLOUDY    66  59  78 S12       29.97F
Nantucket      MOSUNNY   57  53  86 SW17      30.01F
$$

ANZ330-335-338-340-345-350-353-355-281900-
COASTAL MARINE OBSERVATIONS


STATION/POSITION TIME  SKY/WX   TEMP    WIND        PRES    VSBY  WAVE
                                AIR SEA DIR/SP/G                  HT/PER
                 (UTC)          (F)     (DEG/KT/KT) (MB)    (MI)  (FT/S)
NY HARB ENTRANCE 1650            55 53  200/  2/  4 1016.5          4/ 8
20 S FIRE ISLAND 1750            53 49  220/  8/ 10 1016.1          4/ 9
GREAT SOUTH BAY  1730            58 60  210/ 10/ 10   N/A
23 SSW MONTAUK P 1650            50 47              1016.9          5/ 9
15 E BARNEGAT LI 1730               52                N/A           4/10
HUDSON CANYON    1650            52 49  220/ 10/ 12 1017.0          5/ 8
KINGS POINT      1748            73 50  210/  2/  3 1015.1
EXECUTION ROCKS  NOT AVBL
CENTRAL LI SOUND 1730            55     300/  4/  4   N/A           0
EASTERN LI SOUND NOT AVBL
ROBBINS REEF     1748            67     170/ 15/ 18 1015.6
$$


>>>>>>>>>>>>>>>>>>>>>>>>>>>> KEY <<<<<<<<<<<<<<<<<<<<<<<<<<<
>                                                          <
>     SKY/WX - Sky Condition/Present Weather               <
>     TMP    - Temperature in Fahrenheit                   <
>     DP     - Dew Point in Fahrenheit                     <
>     RH     - Relative Humidity in Percent                <
>     WIND   - Direction (from) and Speed in MPH           <
>     PRES   - Mean Sea Level Pressure (inches of Hg)      <
>     WCI    - Wind Chill Index                            <
>     VSB    - VISIBILITY IN MILES                         <
>     HX     - HEAT INDEX                                  <
>     TC     - TEMPERATURE IN CELSIUS                      <
>     VRB    - VARIABLE WIND DIRECTION                     <
>                                                          <
>>>>>>>>>>>>>>>>>>>>>>>>>>>> KEY <<<<<<<<<<<<<<<<<<<<<<<<<<<




USA.gov is the U.S. government's official web portal to all federal, state and local government web resources and services.